Temp
71 71 72 74 72 72 70 70 70 69 69 73 73 71 70 69 69 67 66 67 67 69 68 66 66 67 67 68 68 67 65 62 59 59 60 60 60 61 62 63 62 60 62
71 72 72 73 72 71 70 71 71 70 72 74 73 70 69 70 68 67 67 70 69 67 68 67 67 70 66 67 68 64 64 61 61 57 58 58 58 59 60 60 60 61 58
72 71 71 71 71 70 70 71 71 71 70 70 70 69 69 69 68 67 67 65 64 63 62 62 62 64 65 65 63 62 61 62 62 59 56 58 57 58 57 58 57 58 59
72 71 70 70 72 71 71 71 71 71 70 69 69 69 68 67 66 68 67 64 63 62 61 61 61 61 62 64 62 60 61 60 61 59 58 57 57 58 57 57 55 59 57
73 72 70 71 72 72 71 71 71 71 70 70 69 68 66 67 68 65 67 65 63 62 61 62 61 66 65 65 63 59 58 58 58 57 56 56 56 56 55 56 54 54 54
72 72 74 72 72 70 71 71 70 70 70 70 68 66 65 69 62 63 66 64 64 63 61 61 62 64 64 64 63 64 61 58 56 55 54 54 54 55 57 55 55 54 52
72 73 72 71 70 70 71 70 69 68 69 67 66 64 62 60 61 60 66 65 63 62 60 61 64 65 62 60 62 62 62 63 62 60 57 57 59 58 58 56 58 57 56
70 70 70 70 70 70 69 69 71 68 68 66 65 63 61 60 61 61 62 65 62 61 61 60 58 56 57 59 57 56 56 56 59 61 57 56 56 56 57 57 58 58 57
71 67 67 68 68 68 68 68 68 68 67 67 66 63 61 58 59 58 61 63 61 60 59 60 59 56 57 59 58 55 54 55 58 58 58 59 60 60 59 58 54 53 52
67 67 67 66 66 66 66 64 66 67 66 67 65 64 62 59 56 57 58 60 60 58 57 56 58 57 55 56 57 56 54 55 56 56 56 57 58 58 60 55 53 51 50
68 66 66 66 65 66 66 67 66 66 66 65 65 65 63 61 56 57 55 61 61 59 58 58 55 56 55 54 56 57 56 55 58 55 54 53 54 55 55 54 54 53 51
66 65 65 65 66 66 66 65 66 66 65 65 64 64 65 62 55 54 56 58 62 59 56 56 58 54 53 54 54 54 56 56 55 54 54 54 53 54 54 55 56 55 54
65 64 63 64 64 65 64 65 66 66 65 64 63 64 63 61 57 53 54 57 59 58 57 57 54 52 51 53 56 56 55 54 53 53 52 54 55 56 55 55 55 55 54
65 64 63 62 61 61 62 64 65 65 64 63 62 62 62 61 56 55 56 55 57 56 56 54 55 54 56 56 55 56 56 54 55 53 53 53 54 54 53 53 53 52 51
64 63 63 62 61 58 53 52 55 57 58 63 63 63 62 61 60 57 56 57 56 55 54 52 51 52 54 53 53 54 55 54 54 53 53 53 53 53 53 52 52 51 50
63 63 63 63 60 56 55 53 48 47 46 46 49 57 56 50 51 50 50 50 50 50 53 51 51 52 52 54 54 54 52 56 54 54 53 54 52 52 52 52 52 51 50
62 63 63 61 61 57 54 55 54 51 45 44 44 47 49 47 45 46 46 47 48 52 54 52 52 52 54 55 57 54 53 54 55 54 53 53 54 53 53 52 52 51 51
60 60 59 61 63 62 60 56 55 56 55 55 48 48 43 43 43 45 46 52 55 53 53 53 53 55 57 60 55 54 54 54 54 54 53 54 54 54 54 52 52 50 49
61 61 60 60 64 62 62 61 59 58 57 57 52 48 44 43 44 45 46 54 52 52 55 53 54 55 59 61 58 54 54 53 54 54 53 53 54 53 52 54 53 52 53
63 63 61 60 60 63 62 61 61 61 59 58 52 52 49 49 52 52 50 50 52 54 58 58 58 58 61 61 59 55 54 54 54 54 54 54 57 56 56 53 52 51 51
64 63 61 61 64 61 64 63 63 63 61 61 58 57 50 52 52 54 53 55 56 57 56 58 59 63 63 60 56 55 56 56 55 55 55 58 58 55 53 53 52 52 51
64 63 61 61 64 60 64 64 63 62 61 60 60 59 46 55 56 59 60 60 60 61 63 62 65 68 65 61 59 59 58 56 57 59 57 55 54 54 53 52 51 50 50
64 64 62 62 65 60 61 65 65 64 65 65 62 59 56 57 61 62 63 64 63 64 63 61 63 62 62 61 61 59 60 57 56 55 54 56 52 52 51 50 50 49 48
64 63 63 62 60 60 62 62 62 57 62 61 62 60 60 60 59 58 60 62 66 67 63 63 63 62 60 61 61 57 57 56 55 55 56 55 51 49 49 48 48 48 47
63 62 62 61 60 59 58 61 60 60 60 61 61 60 61 61 61 59 60 60 63 62 62 60 61 64 63 60 52 45 38 36 48 45 49 49 49 49 48 47 47 47 47
62 61 61 60 58 57 56 60 60 60 60 59 59 56 56 56 56 55 55 55 56 59 60 61 63 64 58 54 50 38 35 35 39 37 45 46 46 45 45 45 47 45 45
MSLP
1013.87 1014.17 1014.66 1014.66 1014.84 1014.85 1015.14 1015.24 1015.44 1015.32 1015.36 1015.38 1015.40 1015.64 1015.85 1015.96 1016.25 1016.41 1016.49 1016.70 1016.75 1016.73 1016.46 1016.33 1016.26 1015.93 1016.04 1015.96 1015.91 1016.06 1016.72 1017.49 1019.07 1020.17 1020.54 1020.91 1021.07 1021.07 1021.16 1021.26 1021.57 1021.59 1021.54
1013.77 1014.08 1014.36 1014.18 1014.55 1014.86 1015.14 1015.32 1015.40 1015.31 1015.44 1015.50 1015.58 1015.88 1015.98 1016.11 1016.52 1016.62 1016.89 1017.05 1017.15 1017.05 1016.89 1016.68 1016.62 1016.41 1016.47 1016.39 1016.49 1016.78 1017.21 1017.67 1018.62 1019.91 1020.81 1021.25 1021.50 1021.63 1021.67 1021.66 1021.91 1021.97 1022.02
1013.55 1014.00 1014.34 1014.41 1014.42 1014.87 1015.06 1015.20 1015.31 1015.44 1015.66 1015.92 1015.98 1016.23 1016.46 1016.48 1016.73 1016.91 1017.09 1017.41 1017.61 1017.70 1017.47 1017.24 1017.28 1017.02 1017.02 1017.09 1017.26 1017.46 1017.88 1018.36 1018.89 1019.64 1020.70 1021.35 1021.76 1021.84 1022.04 1021.98 1022.17 1022.26 1022.22
1013.42 1013.86 1014.26 1014.32 1014.33 1014.74 1014.97 1015.14 1015.29 1015.52 1015.79 1016.17 1016.20 1016.39 1016.64 1016.77 1016.98 1017.00 1017.32 1017.75 1017.98 1018.02 1017.85 1017.73 1017.76 1017.62 1017.59 1017.67 1017.99 1018.30 1018.52 1018.98 1019.47 1020.05 1020.73 1021.26 1021.59 1021.90 1021.94 1022.14 1022.33 1022.29 1022.32
1013.11 1013.64 1013.88 1013.94 1014.14 1014.59 1014.87 1015.20 1015.41 1015.51 1015.86 1016.08 1016.34 1016.62 1016.73 1016.92 1017.17 1017.28 1017.47 1017.86 1018.17 1018.40 1018.48 1018.38 1018.21 1018.10 1017.98 1017.91 1018.25 1018.85 1019.16 1019.53 1019.97 1020.49 1020.86 1021.21 1021.50 1021.85 1021.96 1021.99 1022.28 1022.42 1022.44
1012.86 1013.40 1013.63 1014.03 1014.34 1014.74 1014.91 1015.14 1015.45 1015.53 1015.88 1016.11 1016.43 1016.70 1017.10 1017.48 1017.54 1017.43 1017.52 1017.83 1018.05 1018.46 1018.93 1018.93 1018.87 1018.72 1018.61 1018.64 1018.74 1019.03 1019.33 1019.68 1020.11 1020.62 1020.98 1021.26 1021.40 1021.43 1021.53 1021.82 1021.98 1022.34 1022.49
1012.96 1013.23 1013.54 1013.94 1014.47 1014.64 1015.02 1015.32 1015.51 1015.67 1015.98 1016.33 1016.72 1016.86 1017.29 1017.79 1017.77 1017.62 1017.66 1017.81 1018.18 1018.49 1018.79 1019.13 1019.30 1019.39 1019.26 1019.25 1019.28 1019.41 1019.65 1019.87 1019.94 1020.11 1020.73 1021.05 1021.25 1021.20 1021.31 1021.63 1021.71 1021.72 1021.85
1013.15 1013.64 1013.75 1014.22 1014.70 1015.10 1015.12 1015.30 1015.44 1015.50 1015.93 1016.38 1016.77 1017.09 1017.47 1017.68 1017.85 1017.90 1017.99 1018.06 1018.32 1018.75 1018.99 1019.18 1019.50 1019.72 1019.68 1019.68 1019.89 1020.08 1020.16 1020.21 1020.20 1020.38 1020.63 1020.88 1021.01 1020.98 1020.95 1021.08 1021.17 1021.37 1021.49
1013.26 1013.73 1014.01 1014.45 1014.91 1015.38 1015.62 1015.11 1015.28 1015.21 1015.60 1016.04 1016.58 1017.03 1017.49 1017.87 1017.86 1018.13 1018.26 1018.49 1018.68 1019.05 1019.32 1019.54 1019.74 1019.95 1020.03 1020.03 1020.19 1020.58 1020.68 1020.63 1020.49 1020.39 1020.50 1020.66 1020.77 1020.73 1020.74 1020.85 1021.51 1021.53 1021.77
1013.54 1013.88 1014.16 1014.80 1014.99 1015.04 1015.69 1014.47 1016.11 1015.38 1015.79 1015.88 1016.43 1016.88 1017.19 1017.73 1018.00 1018.19 1018.37 1018.63 1019.02 1019.40 1019.66 1019.78 1019.98 1020.07 1020.12 1020.09 1020.46 1020.76 1021.03 1020.81 1020.66 1020.70 1020.84 1020.98 1021.04 1021.03 1020.91 1021.09 1021.49 1021.78 1021.93
1013.59 1013.96 1014.12 1014.57 1014.73 1014.91 1014.77 1015.17 1015.00 1014.28 1015.87 1016.30 1016.58 1016.88 1017.12 1017.38 1017.95 1018.27 1018.34 1018.35 1018.76 1019.35 1019.77 1020.05 1020.12 1020.20 1020.23 1020.26 1020.29 1020.47 1020.71 1020.51 1020.64 1020.78 1020.96 1021.33 1021.58 1021.44 1021.32 1021.09 1021.15 1021.49 1021.79
1013.74 1014.15 1014.34 1014.37 1014.75 1015.08 1015.26 1015.35 1015.58 1015.63 1015.77 1016.09 1016.59 1016.75 1016.83 1017.22 1017.67 1018.22 1018.38 1018.31 1018.66 1019.12 1019.58 1019.85 1020.01 1020.08 1020.18 1020.15 1020.22 1020.32 1020.34 1020.36 1020.47 1020.87 1020.91 1021.14 1021.44 1021.51 1021.48 1021.08 1020.86 1021.09 1021.29
1014.03 1014.42 1014.73 1014.95 1015.23 1015.49 1015.60 1015.31 1015.28 1015.53 1015.81 1016.15 1016.45 1016.47 1016.70 1017.22 1017.73 1018.14 1018.43 1018.53 1018.61 1018.91 1019.24 1019.54 1019.85 1020.04 1020.09 1020.10 1020.20 1020.23 1020.29 1020.34 1020.32 1020.63 1020.90 1021.10 1020.84 1020.69 1020.82 1020.90 1020.88 1020.88 1021.16
1014.35 1014.70 1015.02 1015.30 1015.62 1015.73 1015.79 1015.56 1015.47 1015.46 1015.57 1015.58 1015.89 1016.21 1016.53 1017.01 1017.67 1017.97 1018.34 1018.58 1018.67 1018.87 1019.15 1019.58 1019.70 1019.98 1020.00 1020.02 1020.01 1020.08 1020.20 1020.21 1020.36 1020.74 1020.90 1020.61 1020.60 1020.76 1020.97 1021.04 1021.09 1021.16 1021.44
1014.50 1014.91 1015.22 1015.52 1015.84 1016.18 1016.46 1016.41 1016.18 1015.86 1015.76 1015.59 1015.52 1015.66 1016.05 1016.64 1016.79 1017.11 1017.65 1018.22 1018.60 1018.84 1019.22 1019.63 1019.98 1020.06 1020.09 1020.16 1020.07 1020.09 1019.97 1020.16 1020.25 1020.32 1020.59 1020.69 1020.90 1020.94 1021.03 1020.97 1021.08 1021.26 1021.46
1014.53 1014.87 1015.05 1015.26 1015.56 1015.96 1016.39 1016.59 1016.55 1016.38 1016.11 1015.67 1015.64 1015.51 1015.92 1016.08 1016.14 1016.72 1017.20 1017.64 1018.08 1018.51 1019.15 1019.57 1019.66 1019.67 1019.73 1019.93 1019.94 1020.05 1020.04 1019.84 1020.14 1020.22 1020.51 1020.62 1021.07 1021.17 1021.21 1021.06 1021.16 1021.38 1021.64
1014.35 1014.59 1014.70 1014.86 1015.07 1015.40 1015.85 1016.17 1016.35 1016.43 1016.27 1015.95 1015.67 1015.67 1015.78 1015.81 1016.24 1016.64 1016.93 1017.23 1017.56 1018.09 1018.66 1018.99 1019.14 1019.17 1019.26 1019.28 1019.41 1019.56 1019.82 1019.53 1019.58 1019.97 1020.41 1020.49 1020.60 1020.87 1020.93 1021.04 1021.10 1021.25 1021.34
1014.02 1014.01 1014.12 1014.22 1014.44 1014.76 1015.02 1015.38 1015.69 1015.90 1015.95 1016.10 1016.14 1016.09 1016.13 1016.32 1016.60 1016.63 1016.77 1017.11 1017.88 1017.88 1018.12 1018.39 1018.51 1018.59 1018.55 1018.45 1018.46 1018.77 1019.03 1019.17 1019.48 1019.79 1020.09 1020.17 1020.35 1020.58 1020.76 1020.87 1020.86 1021.05 1021.16
1013.70 1013.72 1013.63 1013.74 1013.82 1014.09 1014.41 1014.66 1014.85 1015.05 1015.23 1015.48 1016.11 1016.37 1016.49 1016.75 1017.11 1016.96 1016.96 1017.00 1017.21 1017.38 1017.51 1017.68 1017.72 1017.70 1017.60 1017.43 1017.43 1017.91 1018.36 1018.94 1019.12 1019.43 1019.72 1019.86 1019.97 1020.27 1020.42 1020.68 1020.78 1020.78 1020.79
1013.04 1012.96 1013.09 1013.33 1013.52 1013.59 1013.70 1013.90 1014.03 1014.16 1014.37 1014.71 1015.26 1015.76 1016.44 1016.84 1016.75 1016.76 1016.71 1016.78 1016.82 1016.82 1016.59 1016.65 1016.76 1016.84 1016.88 1016.73 1016.97 1017.50 1018.00 1018.37 1018.69 1018.97 1019.11 1019.22 1019.30 1019.55 1019.90 1020.11 1020.28 1020.39 1020.49
1012.53 1012.67 1012.66 1012.85 1012.96 1012.96 1013.10 1013.18 1013.20 1013.30 1013.51 1013.77 1014.13 1014.47 1014.84 1015.38 1015.71 1015.86 1016.01 1016.07 1015.93 1015.86 1015.79 1015.70 1015.74 1015.77 1015.78 1015.90 1016.35 1016.78 1017.16 1017.56 1017.90 1018.15 1018.42 1018.65 1019.02 1019.43 1019.22 1019.17 1019.59 1019.83 1020.01
1011.88 1012.06 1012.14 1012.29 1012.34 1012.42 1012.39 1012.33 1012.34 1012.37 1012.38 1012.74 1013.16 1013.50 1014.20 1014.52 1014.62 1014.69 1014.70 1014.74 1014.76 1014.77 1014.69 1014.76 1014.66 1014.64 1014.61 1014.98 1015.49 1016.08 1016.55 1016.97 1017.29 1017.55 1017.78 1018.06 1018.41 1018.59 1018.81 1018.96 1019.15 1019.43 1019.64
1011.22 1011.40 1011.52 1011.58 1011.69 1011.88 1011.84 1011.79 1011.61 1011.35 1011.09 1011.24 1011.99 1012.58 1013.47 1013.56 1013.54 1013.40 1013.51 1013.67 1013.92 1013.95 1013.78 1013.99 1013.91 1013.77 1014.08 1014.34 1014.64 1015.16 1015.78 1016.23 1016.57 1016.74 1017.11 1017.56 1017.85 1018.13 1018.44 1018.76 1018.97 1019.18 1019.22
1010.73 1010.83 1010.91 1010.99 1011.09 1011.24 1011.47 1011.56 1011.64 1011.46 1011.18 1011.41 1011.73 1011.90 1012.12 1012.62 1013.32 1013.42 1013.43 1013.17 1013.07 1013.14 1013.04 1013.07 1013.31 1013.47 1013.76 1014.10 1014.53 1015.22 1015.54 1015.94 1016.23 1016.53 1016.58 1017.19 1017.73 1017.99 1018.21 1018.48 1018.70 1018.81 1018.96
1010.88 1010.51 1010.53 1010.56 1010.67 1010.93 1011.03 1011.22 1011.38 1011.40 1011.45 1011.39 1011.57 1012.19 1012.69 1012.75 1012.86 1013.47 1013.27 1012.74 1013.08 1012.91 1012.58 1012.65 1012.85 1013.16 1013.45 1013.99 1014.94 1015.49 1016.00 1016.11 1016.22 1016.48 1016.86 1017.25 1017.78 1017.94 1018.17 1018.35 1018.39 1018.40 1018.44
1011.10 1010.61 1010.55 1010.48 1010.90 1010.91 1010.93 1010.94 1011.21 1011.47 1011.38 1011.30 1011.43 1011.98 1012.30 1012.93 1013.05 1013.16 1013.24 1013.67 1013.85 1014.33 1013.62 1013.13 1012.99 1013.05 1014.11 1014.79 1015.28 1015.85 1016.16 1016.48 1016.82 1017.08 1017.34 1017.62 1017.79 1018.02 1018.23 1018.23 1018.09 1018.16 1018.14
Wind_Speed
6 6 9 6 4 5 6 5 4 4 4 4 3 5 4 6 7 6 7 6 6 6 6 6 6 6 4 5 4 3 5 5 6 3 3 4 4 6 5 5 5 5 6
7 7 6 7 7 6 6 5 3 5 6 6 6 7 6 7 6 7 7 5 6 7 6 8 7 4 5 6 6 8 6 4 7 9 2 2 4 4 3 5 4 4 4
6 6 5 6 7 6 6 6 5 6 6 5 7 7 6 6 7 6 7 7 7 6 6 7 6 6 6 6 6 6 7 7 7 7 4 2 2 1 3 3 3 2 3
7 6 7 7 7 6 6 5 5 6 7 5 5 5 6 7 6 6 7 7 6 6 6 6 6 7 6 6 6 6 7 7 8 7 5 3 2 1 2 2 1 1 2
7 6 6 7 7 7 7 6 5 7 6 6 4 6 7 7 4 5 7 7 7 6 6 6 6 13 17 9 6 5 7 7 6 5 3 2 2 2 2 3 2 1 1
7 6 8 7 7 6 6 7 6 6 6 6 5 7 7 4 6 8 7 6 6 6 6 4 6 8 12 15 17 9 7 6 5 3 2 3 3 3 3 3 3 2 1
6 5 7 7 7 6 6 6 6 7 4 5 7 7 7 5 6 9 7 6 7 6 6 5 6 6 7 7 11 13 13 10 5 5 5 3 3 2 4 3 3 2 2
4 2 4 2 2 1 5 6 6 6 7 5 6 7 6 5 7 7 8 6 6 7 7 7 7 6 5 7 7 8 7 6 6 5 6 4 4 2 3 3 4 3 1
3 6 7 6 4 2 6 6 4 5 5 5 6 7 7 4 8 7 6 4 7 7 5 5 7 6 4 6 7 7 6 4 4 7 7 7 6 4 5 5 4 3 1
5 7 8 7 5 3 2 7 8 4 3 4 6 7 8 7 6 7 4 2 6 5 4 5 7 5 6 6 6 6 5 4 3 2 2 3 4 4 7 6 4 3 2
6 5 6 4 3 3 2 2 2 2 3 4 3 5 6 7 6 5 3 4 5 5 4 3 2 4 5 6 8 6 6 3 4 4 3 2 2 1 1 2 5 4 3
5 4 3 6 4 2 4 4 5 4 5 5 6 5 5 6 9 5 5 6 4 5 6 4 4 5 2 3 5 6 4 2 1 1 3 2 4 3 3 2 2 3 3
5 6 5 5 5 3 2 4 6 7 7 6 6 5 5 4 4 9 7 5 5 4 4 6 9 6 2 0 4 4 2 1 1 3 3 4 4 4 3 1 3 4 2
4 4 3 3 3 3 2 3 3 4 6 5 6 5 4 6 5 4 4 3 6 5 7 5 6 5 4 3 2 1 1 2 3 3 2 2 1 2 2 1 1 0 1
4 3 1 1 2 3 2 2 3 3 3 5 6 6 5 7 7 11 10 6 5 6 6 3 2 2 2 3 2 3 3 1 2 1 2 2 2 2 1 0 1 0 1
1 2 4 4 3 3 3 2 3 2 4 4 2 3 2 3 14 16 15 14 13 12 4 3 4 4 4 4 4 3 3 5 3 3 2 3 3 2 1 1 1 1 2
1 3 2 3 4 4 3 3 3 1 3 5 5 6 8 10 10 13 13 10 12 11 4 4 4 5 5 5 6 5 5 4 4 4 3 3 3 3 1 1 2 2 3
5 7 3 4 4 4 4 4 4 4 3 2 4 3 5 7 7 10 12 10 3 0 3 5 5 5 5 5 5 6 5 5 4 3 3 3 4 3 2 2 2 1 1
5 4 3 4 3 5 4 4 4 4 4 3 3 1 4 7 5 6 5 3 4 4 5 5 5 5 4 6 5 5 6 5 5 4 3 3 4 4 3 2 2 2 3
6 9 6 3 3 3 4 5 5 6 5 6 5 4 5 4 4 4 4 4 4 4 6 8 7 7 7 6 7 6 6 5 5 5 5 5 5 4 5 3 2 1 2
3 3 7 5 4 4 4 6 7 6 7 6 6 8 13 8 6 6 6 7 7 7 5 5 6 8 7 7 6 6 6 5 5 6 5 3 4 4 3 4 3 3 3
5 5 4 5 4 4 4 5 6 6 7 10 8 6 17 7 7 8 8 8 9 9 7 7 8 9 8 9 8 7 7 6 5 5 5 5 5 4 3 3 2 1 1
5 6 5 4 5 4 4 5 4 4 4 7 9 8 11 9 8 7 7 8 7 8 8 6 5 4 3 4 6 7 7 5 6 5 6 5 5 4 3 2 2 3 2
5 6 6 5 5 4 3 2 3 4 7 7 1 5 10 8 3 2 3 4 7 9 5 4 4 7 7 6 6 5 5 5 5 4 6 5 3 2 1 1 2 3 3
7 5 5 5 5 4 4 3 4 4 4 5 6 5 4 3 5 4 4 9 10 3 5 4 3 8 7 8 8 8 7 6 7 7 5 6 3 2 2 2 4 3 4
8 6 4 2 4 3 4 4 3 3 4 4 5 5 6 5 5 6 6 7 7 7 7 5 4 4 10 8 10 13 10 8 7 8 5 3 2 2 3 5 6 3 2
Wind_Direction
135 128 152 162 137 107 109 107 109 123 139 138 144 108 84 61 98 87 71 53 53 47 37 43 41 42 37 41 45 79 76 92 115 76 63 41 45 71 59 65 83 73 70
151 151 171 145 144 128 123 119 101 97 73 74 75 82 74 76 107 96 91 76 60 47 35 42 27 41 58 63 63 63 82 97 129 128 117 93 67 44 61 76 58 76 69
139 150 162 152 138 138 139 138 124 108 103 84 94 100 93 79 91 108 102 75 69 54 45 51 33 36 45 71 65 75 95 103 117 128 115 96 101 107 80 71 82 92 105
158 170 188 164 150 145 144 143 140 125 119 111 118 121 109 86 57 85 105 101 89 74 64 62 47 49 63 85 77 68 94 108 114 117 111 113 128 128 116 120 106 110 112
175 184 198 163 152 151 153 159 164 133 140 145 153 95 88 78 65 84 103 120 114 93 72 71 66 73 67 80 111 104 106 107 111 121 116 120 125 137 178 189 130 147 263
179 208 173 156 150 164 174 165 159 143 156 166 123 114 99 81 56 69 108 110 113 121 118 99 71 62 63 64 73 99 123 128 126 118 121 145 172 178 165 176 147 147 249
180 201 157 162 170 183 177 167 164 153 145 116 125 117 116 112 67 49 97 113 105 99 90 110 64 51 67 70 59 65 67 82 112 149 142 152 143 160 164 185 213 203 214
201 246 179 151 102 223 267 191 176 159 155 142 138 127 125 125 84 47 37 111 95 88 90 100 102 79 61 96 83 71 66 67 81 94 111 127 123 136 140 173 199 197 62
97 90 86 79 85 345 321 211 238 178 157 157 146 142 138 149 113 72 64 93 108 98 84 98 108 91 36 104 106 103 86 68 52 102 118 128 124 105 119 81 27 67 284
96 114 120 121 111 120 134 64 292 272 176 159 149 152 152 152 135 108 92 114 127 125 107 85 84 116 73 79 135 136 133 191 150 92 54 25 33 30 64 96 131 92 104
117 136 133 109 110 106 130 82 254 4 192 172 182 164 158 152 159 138 57 175 151 145 145 142 136 99 89 91 127 154 184 181 218 188 228 167 250 251 296 101 112 120 109
96 87 72 83 77 81 197 192 210 233 194 179 168 191 144 147 142 143 92 86 136 139 158 171 174 154 127 95 110 145 118 76 247 242 221 177 162 206 225 213 156 158 169
80 83 80 71 81 51 9 208 202 203 194 182 179 180 151 136 137 151 146 123 87 113 145 163 162 174 215 59 189 151 95 14 53 97 125 164 183 179 130 57 337 268 240
75 75 43 51 58 46 4 323 195 187 188 182 181 186 167 156 158 160 162 146 122 106 126 143 166 182 198 259 338 214 176 149 122 135 159 189 131 74 118 189 105 48 92
100 120 185 153 146 122 68 347 330 352 295 206 200 186 170 179 192 172 167 174 174 172 133 113 139 198 229 257 272 252 269 145 88 106 80 66 64 94 153 179 107 29 96
14 268 219 189 171 163 180 187 58 325 317 83 123 146 127 288 167 172 175 177 180 164 128 171 199 210 210 220 225 227 209 141 157 115 134 134 130 156 188 348 228 138 114
155 317 337 218 184 170 181 197 225 144 57 35 63 161 171 155 139 152 152 149 169 149 172 192 207 205 221 217 221 180 189 183 159 138 161 188 156 176 231 272 224 171 213
196 206 241 269 195 189 183 195 200 200 204 190 18 81 112 139 152 146 133 111 131 145 179 198 211 216 223 219 183 158 164 164 167 172 199 183 176 177 218 254 270 232 263
193 231 224 239 251 184 189 191 192 205 214 169 134 140 103 114 131 133 167 161 179 192 209 226 219 234 248 196 148 152 147 167 180 171 204 192 202 185 225 232 160 121 112
208 218 209 222 268 232 197 207 215 217 205 188 178 179 155 156 183 189 190 202 221 223 211 218 215 225 216 165 152 150 157 162 179 191 211 210 219 189 170 169 169 188 253
201 237 210 208 218 234 223 219 228 222 211 202 193 192 182 181 186 190 194 209 218 233 230 229 205 212 190 162 164 165 174 191 200 210 212 208 171 189 183 159 185 222 250
199 216 214 204 213 248 259 232 237 231 215 199 195 188 176 188 193 199 207 210 214 222 229 242 257 198 183 172 172 173 183 197 208 214 196 167 175 169 165 162 181 196 221
204 213 223 211 195 246 266 262 307 268 266 212 186 173 183 197 203 198 204 215 219 222 219 221 195 162 153 167 174 178 180 178 174 164 153 156 146 139 137 162 218 252 237
233 212 210 219 190 200 241 306 116 43 57 60 125 185 180 187 206 223 231 272 225 226 200 173 155 145 142 136 121 120 131 129 114 109 122 114 116 99 101 174 224 234 246
287 233 228 233 198 209 200 183 163 143 130 105 94 112 106 155 121 80 29 31 348 244 155 138 130 140 133 111 102 94 80 94 100 101 82 87 73 354 293 239 231 253 251
320 294 284 288 270 256 212 172 184 193 176 150 139 121 115 108 86 79 54 40 31 347 0 19 21 16 100 107 119 126 116 94 82 75 86 75 45 317 299 272 257 202 218